{"data":{"norad_id":43773,"epoch":"2026-09-19T16:56:56.192352Z","epoch_age_seconds":124266,"freshness":"FRESH","line1":"1 43773U 18099R   26262.70620593  .00002601  00000+0  14640-3 0  9997","line2":"2 43773  97.3887 302.5206 0010744  28.8984 331.2841 15.14056656426790","mean_motion":15.14056656,"eccentricity":0.0010744,"inclination_deg":97.3887,"raan_deg":302.5206,"arg_perigee_deg":28.8984,"mean_anomaly_deg":331.2841,"bstar":0.0001464,"rev_number":42679,"period_min":95.108726235143,"perigee_km":516.42847024543,"apogee_km":531.25944692925,"semimajor_km":6901.9809585873,"source":"CELESTRAK","updated_at":"2026-09-20T09:00:14.403075Z"}}